| time (UTC) | temp F | wind direction | speed MPH | gust MPH | rain 1hr in | rain 24hr in | rain mn in | humidity % | barometer mb |
| 20260504151059 | 61 | 290 | 8.0 | 19.0 | 0.00 | 0.00 | 0.00 | 38 | 996.5 |
| 20260504150558 | 61 | 238 | 9.0 | 19.0 | 0.00 | 0.00 | 0.00 | 39 | 996.6 |
| 20260504141050 | 61 | 288 | 8.0 | 21.0 | 0.00 | 0.00 | 0.00 | 42 | 996.0 |
| 20260504140549 | 61 | 298 | 8.0 | 20.0 | 0.00 | 0.00 | 0.00 | 45 | 996.1 |
| 20260504130543 | 60 | 263 | 8.0 | 25.0 | 0.00 | 0.00 | 0.00 | 48 | 995.7 |
| 20260504110521 | 54 | 198 | 3.0 | 11.0 | 0.00 | 0.00 | 0.00 | 52 | 994.8 |
| 20260504100516 | 54 | 232 | 3.0 | 12.0 | 0.00 | 0.00 | 0.00 | 52 | 995.7 |
| 20260504081515 | 53 | 166 | 1.0 | 6.0 | 0.00 | 0.00 | 0.00 | 51 | 997.4 |
| 20260504081007 | 53 | 166 | 0.0 | 3.0 | 0.00 | 0.00 | 0.00 | 51 | 997.5 |
| 20260504080506 | 53 | 166 | 0.0 | 3.0 | 0.00 | 0.00 | 0.00 | 52 | 997.5 |
| 20260504050545 | 56 | 198 | 1.0 | 5.0 | 0.00 | 0.00 | 0.00 | 42 | 1000.6 |
| 20260504045042 | 57 | 198 | 2.0 | 6.0 | 0.00 | 0.00 | 0.00 | 41 | 1000.9 |
| 20260504044542 | 57 | 208 | 1.0 | 4.0 | 0.00 | 0.00 | 0.00 | 40 | 1001.0 |
| 20260504044041 | 57 | 208 | 1.0 | 4.0 | 0.00 | 0.00 | 0.00 | 40 | 1001.1 |
| 20260504043541 | 57 | 208 | 1.0 | 4.0 | 0.00 | 0.00 | 0.00 | 39 | 1001.2 |
| 20260504043043 | 58 | 208 | 1.0 | 6.0 | 0.00 | 0.00 | 0.00 | 39 | 1001.3 |
| 20260504042539 | 58 | 208 | 2.0 | 6.0 | 0.00 | 0.00 | 0.00 | 38 | 1001.3 |
| 20260504042038 | 58 | 265 | 0.0 | 2.0 | 0.00 | 0.00 | 0.00 | 37 | 1001.4 |
| 20260504041538 | 59 | 265 | 0.0 | 2.0 | 0.00 | 0.00 | 0.00 | 37 | 1001.5 |
| 20260504041038 | 59 | 265 | 1.0 | 2.0 | 0.00 | 0.00 | 0.00 | 37 | 1001.6 |
| 20260504040537 | 59 | 265 | 0.0 | 3.0 | 0.00 | 0.00 | 0.00 | 37 | 1001.7 |
| 20260504040036 | 59 | 265 | 0.0 | 3.0 | 0.00 | 0.00 | 0.00 | 37 | 1001.8 |
| 20260504035038 | 59 | 265 | 0.0 | 3.0 | 0.00 | 0.00 | 0.00 | 36 | 1002.0 |
| 20260504034536 | 59 | 265 | 1.0 | 3.0 | 0.00 | 0.00 | 0.00 | 36 | 1002.1 |
| 20260504034035 | 59 | 265 | 0.0 | 3.0 | 0.00 | 0.00 | 0.00 | 36 | 1002.1 |
| 20260504033535 | 59 | 265 | 0.0 | 3.0 | 0.00 | 0.00 | 0.00 | 36 | 1002.2 |
| 20260504033035 | 60 | 265 | 0.0 | 2.0 | 0.00 | 0.00 | 0.00 | 36 | 1002.3 |
| 20260504032534 | 60 | 265 | 0.0 | 2.0 | 0.00 | 0.00 | 0.00 | 36 | 1002.3 |
| 20260504032036 | 60 | 265 | 0.0 | 3.0 | 0.00 | 0.00 | 0.00 | 36 | 1002.4 |
| 20260504031534 | 60 | 265 | 0.0 | 3.0 | 0.00 | 0.00 | 0.00 | 36 | 1002.5 |
| 20260504031032 | 60 | 265 | 1.0 | 2.0 | 0.00 | 0.00 | 0.00 | 36 | 1002.5 |
| 20260504030531 | 60 | 265 | 0.0 | 2.0 | 0.00 | 0.00 | 0.00 | 36 | 1002.5 |
| 20260504030031 | 61 | 265 | 0.0 | 3.0 | 0.00 | 0.00 | 0.00 | 35 | 1002.5 |
| 20260504025031 | 61 | 265 | 1.0 | 4.0 | 0.00 | 0.00 | 0.00 | 35 | 1002.6 |
| 20260504024534 | 61 | 265 | 1.0 | 4.0 | 0.00 | 0.00 | 0.00 | 35 | 1002.6 |
| 20260504024033 | 61 | 265 | 1.0 | 4.0 | 0.00 | 0.00 | 0.00 | 35 | 1002.6 |
| 20260504023530 | 61 | 265 | 1.0 | 3.0 | 0.00 | 0.00 | 0.00 | 35 | 1002.6 |
| 20260504023034 | 61 | 265 | 1.0 | 6.0 | 0.00 | 0.00 | 0.00 | 35 | 1002.6 |
| 20260504022533 | 61 | 265 | 2.0 | 6.0 | 0.00 | 0.00 | 0.00 | 35 | 1002.6 |
| 20260504022031 | 62 | 266 | 1.0 | 3.0 | 0.00 | 0.00 | 0.00 | 35 | 1002.6 |
| 20260504021529 | 62 | 266 | 1.0 | 3.0 | 0.00 | 0.00 | 0.00 | 35 | 1002.6 |
| 20260504021030 | 62 | 266 | 1.0 | 3.0 | 0.00 | 0.00 | 0.00 | 35 | 1002.6 |
| 20260504020529 | 62 | 266 | 0.0 | 4.0 | 0.00 | 0.00 | 0.00 | 35 | 1002.6 |
| 20260504020029 | 62 | 266 | 1.0 | 4.0 | 0.00 | 0.00 | 0.00 | 34 | 1002.5 |
| 20260504015029 | 63 | 266 | 1.0 | 4.0 | 0.00 | 0.00 | 0.00 | 34 | 1002.6 |
| 20260504014538 | 63 | 266 | 1.0 | 4.0 | 0.00 | 0.00 | 0.00 | 34 | 1002.7 |
| 20260504014028 | 63 | 266 | 1.0 | 7.0 | 0.00 | 0.00 | 0.00 | 33 | 1002.7 |
| 20260504013528 | 64 | 266 | 1.0 | 7.0 | 0.00 | 0.00 | 0.00 | 33 | 1002.7 |
| 20260504013036 | 64 | 268 | 1.0 | 4.0 | 0.00 | 0.00 | 0.00 | 32 | 1002.7 |
| 20260504012528 | 64 | 268 | 1.0 | 4.0 | 0.00 | 0.00 | 0.00 | 32 | 1002.7 |
| 20260504012028 | 65 | 268 | 0.0 | 4.0 | 0.00 | 0.00 | 0.00 | 32 | 1002.7 |
| 20260504011527 | 65 | 268 | 1.0 | 6.0 | 0.00 | 0.00 | 0.00 | 32 | 1002.7 |
| 20260504011026 | 65 | 269 | 1.0 | 6.0 | 0.00 | 0.00 | 0.00 | 31 | 1002.8 |
| 20260504010528 | 65 | 269 | 1.0 | 6.0 | 0.00 | 0.00 | 0.00 | 30 | 1002.8 |
| 20260504010026 | 66 | 269 | 1.0 | 7.0 | 0.00 | 0.00 | 0.00 | 30 | 1002.8 |
| 20260504005027 | 66 | 269 | 2.0 | 8.0 | 0.00 | 0.00 | 0.00 | 31 | 1002.8 |
| 20260504004532 | 66 | 269 | 4.0 | 8.0 | 0.00 | 0.00 | 0.00 | 29 | 1002.8 |
| 20260504004026 | 66 | 277 | 2.0 | 8.0 | 0.00 | 0.00 | 0.00 | 30 | 1002.8 |
| 20260504003526 | 66 | 258 | 1.0 | 9.0 | 0.00 | 0.00 | 0.00 | 30 | 1002.8 |
| 20260504003026 | 66 | 259 | 2.0 | 9.0 | 0.00 | 0.00 | 0.00 | 29 | 1002.9 |
| 20260504002526 | 67 | 247 | 4.0 | 8.0 | 0.00 | 0.00 | 0.00 | 28 | 1002.9 |
| 20260504002026 | 67 | 249 | 4.0 | 8.0 | 0.00 | 0.00 | 0.00 | 29 | 1003.0 |
| 20260504001526 | 67 | 263 | 5.0 | 9.0 | 0.00 | 0.00 | 0.00 | 28 | 1003.1 |
| 20260504001026 | 68 | 267 | 2.0 | 12.0 | 0.00 | 0.00 | 0.00 | 28 | 1003.1 |
| 20260504000529 | 68 | 261 | 5.0 | 12.0 | 0.00 | 0.00 | 0.00 | 26 | 1003.0 |
| 20260504000026 | 68 | 242 | 4.0 | 12.0 | 0.00 | 0.00 | 0.00 | 26 | 1003.0 |
| 20260503235027 | 69 | 259 | 6.0 | 10.0 | 0.00 | 0.00 | 0.00 | 24 | 1003.0 |
| 20260503234527 | 68 | 227 | 3.0 | 10.0 | 0.00 | 0.00 | 0.00 | 27 | 1003.0 |
| 20260503234028 | 69 | 275 | 3.0 | 12.0 | 0.00 | 0.00 | 0.00 | 26 | 1003.0 |
| 20260503233524 | 69 | 271 | 3.0 | 13.0 | 0.00 | 0.00 | 0.00 | 25 | 1003.1 |
| 20260503233024 | 69 | 265 | 4.0 | 12.0 | 0.00 | 0.00 | 0.00 | 25 | 1003.2 |
| 20260503232524 | 69 | 299 | 4.0 | 13.0 | 0.00 | 0.00 | 0.00 | 24 | 1003.2 |
| 20260503232027 | 69 | 253 | 5.0 | 13.0 | 0.00 | 0.00 | 0.00 | 25 | 1003.2 |
| 20260503231524 | 69 | 284 | 5.0 | 11.0 | 0.00 | 0.00 | 0.00 | 25 | 1003.2 |
| 20260503231024 | 69 | 298 | 5.0 | 15.0 | 0.00 | 0.00 | 0.00 | 25 | 1003.2 |
| 20260503230523 | 70 | 263 | 7.0 | 15.0 | 0.00 | 0.00 | 0.00 | 25 | 1003.2 |
| 20260503230024 | 69 | 253 | 7.0 | 15.0 | 0.00 | 0.00 | 0.00 | 26 | 1003.3 |
| 20260503225024 | 70 | 301 | 6.0 | 14.0 | 0.00 | 0.00 | 0.00 | 24 | 1003.3 |
| 20260503224524 | 70 | 271 | 2.0 | 9.0 | 0.00 | 0.00 | 0.00 | 23 | 1003.3 |
| 20260503224027 | 70 | 291 | 2.0 | 12.0 | 0.00 | 0.00 | 0.00 | 22 | 1003.3 |
| 20260503223523 | 70 | 292 | 5.0 | 12.0 | 0.00 | 0.00 | 0.00 | 22 | 1003.4 |
| 20260503223023 | 70 | 286 | 4.0 | 13.0 | 0.00 | 0.00 | 0.00 | 23 | 1003.4 |
| 20260503222522 | 70 | 261 | 7.0 | 13.0 | 0.00 | 0.00 | 0.00 | 22 | 1003.4 |
| 20260503222022 | 70 | 291 | 4.0 | 11.0 | 0.00 | 0.00 | 0.00 | 23 | 1003.5 |
| 20260503221522 | 70 | 261 | 5.0 | 14.0 | 0.00 | 0.00 | 0.00 | 25 | 1003.4 |
| 20260503221023 | 70 | 290 | 6.0 | 14.0 | 0.00 | 0.00 | 0.00 | 24 | 1003.5 |
| 20260503220522 | 70 | 281 | 5.0 | 18.0 | 0.00 | 0.00 | 0.00 | 26 | 1003.5 |
| 20260503220022 | 70 | 270 | 6.0 | 18.0 | 0.00 | 0.00 | 0.00 | 25 | 1003.4 |
| 20260503215021 | 70 | 273 | 7.0 | 13.0 | 0.00 | 0.00 | 0.00 | 24 | 1003.5 |
| 20260503214521 | 70 | 286 | 5.0 | 11.0 | 0.00 | 0.00 | 0.00 | 24 | 1003.5 |
| 20260503214021 | 71 | 278 | 6.0 | 11.0 | 0.00 | 0.00 | 0.00 | 23 | 1003.5 |
| 20260503213520 | 70 | 292 | 3.0 | 12.0 | 0.00 | 0.00 | 0.00 | 23 | 1003.5 |
| 20260503213019 | 70 | 289 | 6.0 | 16.0 | 0.00 | 0.00 | 0.00 | 23 | 1003.5 |
| 20260503212519 | 70 | 286 | 5.0 | 16.0 | 0.00 | 0.00 | 0.00 | 22 | 1003.7 |
| 20260503212018 | 70 | 294 | 6.0 | 12.0 | 0.00 | 0.00 | 0.00 | 23 | 1003.7 |
| 20260503211518 | 70 | 278 | 5.0 | 17.0 | 0.00 | 0.00 | 0.00 | 24 | 1003.7 |
| 20260503211018 | 69 | 293 | 7.0 | 17.0 | 0.00 | 0.00 | 0.00 | 24 | 1003.7 |
| 20260503210522 | 69 | 284 | 6.0 | 16.0 | 0.00 | 0.00 | 0.00 | 23 | 1003.7 |
| 20260503210017 | 70 | 278 | 7.0 | 16.0 | 0.00 | 0.00 | 0.00 | 24 | 1003.6 |
| 20260503205019 | 70 | 280 | 5.0 | 13.0 | 0.00 | 0.00 | 0.00 | 25 | 1003.8 |
| 20260503204518 | 70 | 294 | 7.0 | 14.0 | 0.00 | 0.00 | 0.00 | 25 | 1003.8 |
| 20260503204018 | 70 | 285 | 7.0 | 19.0 | 0.00 | 0.00 | 0.00 | 24 | 1003.9 |
| 20260503203516 | 69 | 295 | 4.0 | 20.0 | 0.00 | 0.00 | 0.00 | 25 | 1003.9 |
| 20260503203035 | 70 | 298 | 12.0 | 20.0 | 0.00 | 0.00 | 0.00 | 25 | 1004.0 |
| 20260503202515 | 70 | 300 | 4.0 | 13.0 | 0.00 | 0.00 | 0.00 | 27 | 1004.0 |
| 20260503202015 | 70 | 293 | 5.0 | 14.0 | 0.00 | 0.00 | 0.00 | 26 | 1004.0 |
| 20260503201514 | 69 | 290 | 5.0 | 16.0 | 0.00 | 0.00 | 0.00 | 27 | 1004.1 |
| 20260503201013 | 69 | 279 | 7.0 | 17.0 | 0.00 | 0.00 | 0.00 | 26 | 1004.2 |
| 20260503200513 | 69 | 261 | 9.0 | 17.0 | 0.00 | 0.00 | 0.00 | 28 | 1004.2 |
| 20260503200013 | 69 | 292 | 6.0 | 14.0 | 0.00 | 0.00 | 0.00 | 30 | 1004.3 |
| 20260503195013 | 69 | 256 | 3.0 | 14.0 | 0.00 | 0.00 | 0.00 | 31 | 1004.3 |
| 20260503194531 | 69 | 242 | 6.0 | 20.0 | 0.00 | 0.00 | 0.00 | 29 | 1004.4 |
| 20260503194013 | 70 | 279 | 9.0 | 20.0 | 0.00 | 0.00 | 0.00 | 31 | 1004.3 |
| 20260503193513 | 69 | 287 | 5.0 | 13.0 | 0.00 | 0.00 | 0.00 | 31 | 1004.3 |
| 20260503193014 | 70 | 277 | 7.0 | 16.0 | 0.00 | 0.00 | 0.00 | 31 | 1004.4 |
| 20260503192511 | 70 | 282 | 6.0 | 13.0 | 0.00 | 0.00 | 0.00 | 31 | 1004.4 |
| 20260503192012 | 70 | 293 | 6.0 | 13.0 | 0.00 | 0.00 | 0.00 | 31 | 1004.3 |
| 20260503191511 | 70 | 271 | 6.0 | 11.0 | 0.00 | 0.00 | 0.00 | 33 | 1004.3 |
| 20260503191011 | 70 | 298 | 3.0 | 15.0 | 0.00 | 0.00 | 0.00 | 34 | 1004.2 |
| 20260503190512 | 70 | 279 | 5.0 | 15.0 | 0.00 | 0.00 | 0.00 | 34 | 1004.3 |
| 20260503190011 | 70 | 274 | 7.0 | 14.0 | 0.00 | 0.00 | 0.00 | 35 | 1004.3 |
| 20260503185012 | 70 | 299 | 3.0 | 14.0 | 0.00 | 0.00 | 0.00 | 32 | 1004.5 |
| 20260503184517 | 69 | 332 | 5.0 | 14.0 | 0.00 | 0.00 | 0.00 | 31 | 1004.5 |
| 20260503184008 | 69 | 297 | 4.0 | 16.0 | 0.00 | 0.00 | 0.00 | 32 | 1004.5 |
| 20260503183508 | 69 | 292 | 8.0 | 16.0 | 0.00 | 0.00 | 0.00 | 32 | 1004.6 |
| 20260503183008 | 69 | 291 | 5.0 | 15.0 | 0.00 | 0.00 | 0.00 | 34 | 1004.5 |
| 20260503182507 | 69 | 279 | 6.0 | 14.0 | 0.00 | 0.00 | 0.00 | 38 | 1004.5 |
| 20260503182006 | 69 | 255 | 6.0 | 15.0 | 0.00 | 0.00 | 0.00 | 38 | 1004.5 |
| 20260503181506 | 68 | 249 | 7.0 | 15.0 | 0.00 | 0.00 | 0.00 | 37 | 1004.6 |
| 20260503181005 | 68 | 288 | 4.0 | 13.0 | 0.00 | 0.00 | 0.00 | 36 | 1004.7 |
| 20260503180505 | 68 | 291 | 5.0 | 11.0 | 0.00 | 0.00 | 0.00 | 37 | 1004.8 |
| 20260503180005 | 68 | 279 | 5.0 | 13.0 | 0.00 | 0.00 | 0.00 | 36 | 1004.7 |
| 20260503175005 | 68 | 292 | 6.0 | 12.0 | 0.00 | 0.00 | 0.00 | 35 | 1005.0 |
| 20260503174505 | 68 | 294 | 2.0 | 12.0 | 0.00 | 0.00 | 0.00 | 36 | 1005.0 |
| 20260503174005 | 67 | 272 | 5.0 | 16.0 | 0.00 | 0.00 | 0.00 | 37 | 1005.0 |
| 20260503173504 | 67 | 294 | 6.0 | 16.0 | 0.00 | 0.00 | 0.00 | 37 | 1005.0 |
| 20260503173004 | 67 | 296 | 7.0 | 14.0 | 0.00 | 0.00 | 0.00 | 36 | 1005.1 |
| 20260503172503 | 67 | 294 | 6.0 | 14.0 | 0.00 | 0.00 | 0.00 | 36 | 1005.1 |
| 20260503172001 | 68 | 317 | 3.0 | 10.0 | 0.00 | 0.00 | 0.00 | 35 | 1005.1 |
| 20260503171502 | 68 | 348 | 4.0 | 8.0 | 0.00 | 0.00 | 0.00 | 36 | 1005.1 |
| 20260503171100 | 68 | 273 | 2.0 | 14.0 | 0.00 | 0.00 | 0.00 | 36 | 1005.1 |
| 20260503170559 | 67 | 280 | 7.0 | 17.0 | 0.00 | 0.00 | 0.00 | 36 | 1005.1 |